When you browse on this site, cookies collect data to enhance your experience and personalize the content and advertising you see.
Visit our Privacy Policy to learn more. By continuing to use the site, you agree to this use of cookies and data.
  • In Romania
  • List of Countries
  • For 7 days
  • Water Temperature
  • Satellite Maps
  • Weather Map
  • Weather Widgets
  • user-avatar
    Login

    Hourly Weather Mingachevir

    Today, 18 June, Tuesday

    Time Temperature Precipitation Wind Pressure Humidity
    00:00 +26°C° 0.2 mm 2 mps 749 mmHg 61%
    01:00 +26°C° 0.4 mm 2 mps 749 mmHg 64%
    02:00 +25°C° 0.4 mm 1 mps 749 mmHg 66%
    03:00 +23°C° 0 mm 0 mps 749 mmHg 70%
    04:00 +25°C° 0.5 mm 1 mps 749 mmHg 69%
    05:00 +25°C° 0.5 mm 1 mps 749 mmHg 67%
    06:00 +26°C° 0.5 mm 2 mps 749 mmHg 66%
    07:00 +27°C° 0 mm 2 mps 749 mmHg 57%
    08:00 +29°C° 0 mm 2 mps 749 mmHg 49%
    09:00 +31°C° 0 mm 2 mps 749 mmHg 41%
    10:00 +32°C° 0 mm 2 mps 749 mmHg 38%
    11:00 +34°C° 0 mm 3 mps 748 mmHg 35%
    12:00 +35°C° 0 mm 3 mps 748 mmHg 32%
    13:00 +36°C° 0 mm 3 mps 748 mmHg 32%
    14:00 +36°C° 0 mm 3 mps 747 mmHg 31%
    15:00 +36°C° 0 mm 4 mps 747 mmHg 31%
    16:00 +36°C° 0 mm 3 mps 747 mmHg 33%
    17:00 +35°C° 0 mm 3 mps 747 mmHg 35%
    18:00 +35°C° 0 mm 3 mps 747 mmHg 38%
    19:00 +33°C° 0.1 mm 3 mps 748 mmHg 40%
    20:00 +31°C° 0.1 mm 3 mps 748 mmHg 43%
    21:00 +29°C° 0.1 mm 3 mps 749 mmHg 46%
    22:00 +28°C° 0.8 mm 3 mps 749 mmHg 52%
    23:00 +27°C° 0.8 mm 3 mps 749 mmHg 58%

    Tomorrow, 19 June, Wednesday

    Time Temperature Precipitation Wind Pressure Humidity
    00:00 +26°C° 0.8 mm 3 mps 749 mmHg 64%
    01:00 +25°C° 0.6 mm 2 mps 749 mmHg 67%
    02:00 +25°C° 0.6 mm 2 mps 749 mmHg 69%
    03:00 +24°C° 0.6 mm 1 mps 749 mmHg 71%
    04:00 +25°C° 0 mm 1 mps 749 mmHg 69%
    05:00 +25°C° 0 mm 2 mps 749 mmHg 67%
    06:00 +26°C° 0 mm 2 mps 749 mmHg 66%
    07:00 +27°C° 0 mm 3 mps 749 mmHg 60%
    08:00 +29°C° 0 mm 3 mps 749 mmHg 55%
    09:00 +30°C° 0 mm 3 mps 749 mmHg 50%
    10:00 +33°C° 0 mm 3 mps 749 mmHg 43%
    11:00 +34°C° 0 mm 2 mps 748 mmHg 37%
    12:00 +35°C° 0 mm 2 mps 748 mmHg 31%
    13:00 +36°C° 0 mm 3 mps 748 mmHg 30%
    14:00 +37°C° 0 mm 4 mps 748 mmHg 28%
    15:00 +37°C° 0 mm 5 mps 748 mmHg 27%
    16:00 +37°C° 0 mm 4 mps 748 mmHg 29%
    17:00 +36°C° 0 mm 4 mps 747 mmHg 31%
    18:00 +35°C° 0 mm 3 mps 747 mmHg 33%
    19:00 +34°C° 0 mm 3 mps 748 mmHg 35%
    20:00 +33°C° 0 mm 4 mps 748 mmHg 37%
    21:00 +30°C° 0 mm 4 mps 749 mmHg 39%
    22:00 +29°C° 0 mm 3 mps 749 mmHg 40%
    23:00 +29°C° 0 mm 3 mps 749 mmHg 42%

    Day after tomorrow, 20 June, Thursday

    Time Temperature Precipitation Wind Pressure Humidity
    00:00 +28°C° 0 mm 3 mps 749 mmHg 43%
    01:00 +27°C° 0 mm 3 mps 749 mmHg 44%
    02:00 +27°C° 0 mm 3 mps 749 mmHg 45%
    03:00 +26°C° 0 mm 3 mps 749 mmHg 46%
    04:00 +27°C° 0 mm 2 mps 749 mmHg 47%
    05:00 +27°C° 0 mm 2 mps 749 mmHg 47%
    06:00 +28°C° 0 mm 1 mps 749 mmHg 48%
    07:00 +29°C° 0 mm 2 mps 749 mmHg 41%
    08:00 +31°C° 0 mm 3 mps 749 mmHg 35%
    09:00 +34°C° 0 mm 3 mps 748 mmHg 29%
    10:00 +35°C° 0 mm 4 mps 748 mmHg 27%
    11:00 +36°C° 0 mm 4 mps 748 mmHg 25%
    12:00 +37°C° 0 mm 5 mps 748 mmHg 23%
    13:00 +37°C° 0 mm 5 mps 747 mmHg 23%
    14:00 +39°C° 0 mm 5 mps 747 mmHg 23%
    15:00 +39°C° 0 mm 5 mps 746 mmHg 22%
    16:00 +39°C° 0 mm 5 mps 746 mmHg 24%
    17:00 +37°C° 0 mm 4 mps 746 mmHg 26%
    18:00 +36°C° 0 mm 4 mps 746 mmHg 27%
    19:00 +35°C° 0 mm 4 mps 747 mmHg 29%
    20:00 +33°C° 0 mm 5 mps 747 mmHg 32%
    21:00 +30°C° 0 mm 5 mps 748 mmHg 34%
    22:00 +29°C° 0 mm 5 mps 748 mmHg 35%
    23:00 +29°C° 0 mm 4 mps 748 mmHg 36%

    21 June, Friday

    Time Temperature Precipitation Wind Pressure Humidity
    00:00 +28°C° 0 mm 4 mps 748 mmHg 37%
    01:00 +28°C° 0 mm 4 mps 748 mmHg 38%
    02:00 +27°C° 0 mm 3 mps 748 mmHg 39%
    03:00 +26°C° 0 mm 3 mps 748 mmHg 40%
    04:00 +27°C° 0 mm 3 mps 748 mmHg 40%
    05:00 +27°C° 0 mm 3 mps 748 mmHg 40%
    06:00 +28°C° 0 mm 2 mps 748 mmHg 40%
    07:00 +30°C° 0.2 mm 3 mps 748 mmHg 36%
    08:00 +31°C° 0.2 mm 3 mps 748 mmHg 32%
    09:00 +34°C° 0.2 mm 3 mps 748 mmHg 28%
    10:00 +35°C° 0.3 mm 4 mps 748 mmHg 28%
    11:00 +35°C° 0.3 mm 4 mps 748 mmHg 27%
    12:00 +36°C° 0.3 mm 5 mps 748 mmHg 27%
    13:00 +36°C° 0.1 mm 5 mps 748 mmHg 26%
    14:00 +37°C° 0.1 mm 5 mps 747 mmHg 25%
    15:00 +37°C° 0.1 mm 5 mps 747 mmHg 25%
    16:00 +37°C° 0 mm 5 mps 747 mmHg 26%
    17:00 +36°C° 0 mm 5 mps 747 mmHg 28%
    18:00 +36°C° 0 mm 5 mps 748 mmHg 30%
    19:00 +34°C° 0 mm 5 mps 748 mmHg 32%
    20:00 +33°C° 0 mm 5 mps 749 mmHg 35%
    21:00 +32°C° 0 mm 6 mps 749 mmHg 38%
    22:00 +30°C° 0 mm 5 mps 749 mmHg 39%
    23:00 +30°C° 0 mm 5 mps 749 mmHg 40%

    22 June, Saturday

    Time Temperature Precipitation Wind Pressure Humidity
    00:00 +29°C° 0 mm 4 mps 749 mmHg 41%
    01:00 +28°C° 0 mm 4 mps 749 mmHg 43%
    02:00 +28°C° 0 mm 3 mps 750 mmHg 44%
    03:00 +27°C° 0 mm 3 mps 750 mmHg 46%
    04:00 +27°C° 0 mm 3 mps 750 mmHg 46%
    05:00 +28°C° 0 mm 2 mps 750 mmHg 45%
    06:00 +28°C° 0 mm 2 mps 750 mmHg 45%
    07:00 +30°C° 0 mm 2 mps 750 mmHg 39%
    08:00 +33°C° 0 mm 3 mps 750 mmHg 34%
    09:00 +35°C° 0 mm 3 mps 750 mmHg 29%
    10:00 +36°C° 0 mm 4 mps 750 mmHg 28%
    11:00 +37°C° 0 mm 4 mps 750 mmHg 27%
    12:00 +39°C° 0 mm 5 mps 750 mmHg 26%
    13:00 +39°C° 0 mm 5 mps 749 mmHg 25%
    14:00 +39°C° 0 mm 6 mps 749 mmHg 25%
    15:00 +40°C° 0 mm 6 mps 749 mmHg 25%
    16:00 +39°C° 0 mm 6 mps 749 mmHg 26%
    17:00 +37°C° 0 mm 5 mps 749 mmHg 27%
    18:00 +37°C° 0 mm 5 mps 749 mmHg 29%
    19:00 +35°C° 0 mm 5 mps 750 mmHg 31%
    20:00 +34°C° 0 mm 5 mps 750 mmHg 33%
    21:00 +32°C° 0 mm 5 mps 751 mmHg 36%
    22:00 +32°C° 0 mm 4 mps 751 mmHg 38%
    23:00 +30°C° 0 mm 4 mps 751 mmHg 39%

    23 June, Sunday

    Time Temperature Precipitation Wind Pressure Humidity
    00:00 +29°C° 0 mm 4 mps 751 mmHg 41%
    01:00 +28°C° 0 mm 3 mps 751 mmHg 42%
    02:00 +28°C° 0 mm 2 mps 751 mmHg 42%
    03:00 +27°C° 0 mm 2 mps 751 mmHg 43%
    04:00 +28°C° 0 mm 1 mps 751 mmHg 42%
    05:00 +28°C° 0 mm 1 mps 750 mmHg 42%
    06:00 +29°C° 0 mm 1 mps 750 mmHg 42%
    07:00 +31°C° 0 mm 1 mps 750 mmHg 37%
    08:00 +32°C° 0 mm 1 mps 750 mmHg 32%
    09:00 +34°C° 0 mm 1 mps 750 mmHg 28%
    10:00 +37°C° 0 mm 2 mps 750 mmHg 25%
    11:00 +38°C° 0 mm 3 mps 750 mmHg 22%
    12:00 +41°C° 0 mm 4 mps 750 mmHg 20%
    13:00 +41°C° 0 mm 4 mps 749 mmHg 20%
    14:00 +41°C° 0 mm 5 mps 749 mmHg 20%
    15:00 +42°C° 0 mm 5 mps 748 mmHg 21%
    16:00 +41°C° 0 mm 5 mps 748 mmHg 23%
    17:00 +40°C° 0 mm 5 mps 748 mmHg 24%
    18:00 +40°C° 0 mm 5 mps 748 mmHg 26%
    19:00 +37°C° 0 mm 5 mps 749 mmHg 30%
    20:00 +35°C° 0 mm 6 mps 749 mmHg 33%
    21:00 +34°C° 0 mm 6 mps 750 mmHg 36%
    22:00 +33°C° 0 mm 5 mps 750 mmHg 39%
    23:00 +32°C° 0 mm 5 mps 750 mmHg 41%
    Show more